Powrót do katalogu

COSMOS 2499 DEB

AktywnyPO
NORAD 55732·DEBRIS·🇷🇺 Russia

Wystrzelony May 23, 2014 z Plesetsk Cosmodrome

Loading…

Następne Przeloty (najbliższe 24 godziny)

TLE

Starzejące sięSource: Space-Track

Epoka: Sep 9, 2026, 12:05 UTC

1 55732U 14028AU  26252.50369235  .00005021  00000-0  18513-1 0  9994
2 55732  82.3193 182.1920 0118536 146.5466 214.3201 12.90283107107003

Śledź COSMOS 2499 DEB w czasie rzeczywistym z AllMySat

Download on the App Store